FW3211 Weather Reports


time (UTC)temp
C
wind
direction
speed
KPH
gust
KPH
rain 1hr
cm
rain 24hr
cm
rain mn
cm
humidity
%
barometer
mb
20260507224433 12 344 1.6 3.2 0.00 0.13 0.00 72 1015.4
20260507223935 12 344 1.6 3.2 0.00 0.13 0.00 72 1015.4
20260507223717 12 344 3.2 4.8 0.00 0.13 0.00 73 1015.4
20260507222937 12 344 3.2 4.8 0.00 0.13 0.00 74 1015.4
20260507222435 12 344 3.2 4.8 0.00 0.13 0.00 74 1015.4
20260507221937 12 344 1.6 4.8 0.00 0.13 0.00 75 1015.3
20260507221435 12 344 1.6 3.2 0.00 0.13 0.00 74 1015.4
20260507220933 12 344 1.6 3.2 0.00 0.13 0.00 73 1015.4
20260507220436 12 344 3.2 4.8 0.00 0.13 0.00 73 1015.4
20260507215932 12 344 3.2 4.8 0.00 0.13 0.13 74 1015.3
20260507215432 12 344 3.2 4.8 0.00 0.13 0.13 75 1015.3
20260507214932 12 344 1.6 3.2 0.00 0.13 0.13 75 1015.3
20260507214433 12 344 1.6 3.2 0.00 0.13 0.13 75 1015.3
20260507213934 12 344 3.2 3.2 0.00 0.13 0.13 75 1015.2
20260507213434 12 344 3.2 3.2 0.00 0.13 0.13 76 1015.2
20260507212932 12 344 1.6 3.2 0.00 0.13 0.13 76 1015.2
20260507212726 12 344 1.6 3.2 0.00 0.13 0.13 77 1015.2
20260507211934 12 344 1.6 3.2 0.00 0.13 0.13 77 1015.2
20260507211432 12 344 1.6 3.2 0.00 0.13 0.13 77 1015.2
20260507210933 12 344 1.6 3.2 0.00 0.13 0.13 77 1015.3
20260507210747 12 344 1.6 3.2 0.00 0.13 0.13 78 1015.2
20260507210743 12 344 1.6 3.2 0.00 0.13 0.13 78 1015.2
20260507205433 12 344 3.2 4.8 0.00 0.13 0.13 79 1015.3
20260507204935 12 344 3.2 4.8 0.00 0.13 0.13 79 1015.3
20260507204437 12 354 1.6 3.2 0.00 0.13 0.13 79 1015.3
20260507204220 12 354 1.6 4.8 0.00 0.13 0.13 79 1015.3
20260507203433 12 354 1.6 4.8 0.00 0.13 0.13 79 1015.3
20260507202932 12 354 1.6 3.2 0.00 0.13 0.13 80 1015.3
20260507202432 12 354 3.2 6.4 0.00 0.13 0.13 80 1015.3
20260507201933 12 337 3.2 6.4 0.00 0.13 0.13 80 1015.2
20260507201432 12 347 1.6 3.2 0.00 0.13 0.13 81 1015.2
20260507200934 12 347 1.6 4.8 0.00 0.13 0.13 81 1015.1
20260507200433 12 347 1.6 4.8 0.00 0.13 0.13 81 1014.9
20260507195933 12 347 1.6 3.2 0.00 0.13 0.13 80 1015.0
20260507195720 12 347 1.6 3.2 0.00 0.13 0.13 80 1015.0
20260507194934 12 347 3.2 3.2 0.00 0.13 0.13 80 1014.9
20260507194453 12 347 1.6 3.2 0.00 0.13 0.13 80 1014.9
20260507194339 12 347 1.6 3.2 0.00 0.13 0.13 80 1014.9
20260507193641 12 347 1.6 4.8 0.00 0.13 0.13 80 1014.9
20260507192932 12 347 3.2 4.8 0.00 0.13 0.13 80 1014.9
20260507192434 12 347 1.6 4.8 0.00 0.13 0.13 80 1014.9
20260507191932 12 347 1.6 3.2 0.00 0.13 0.13 80 1014.9
20260507191433 12 347 3.2 3.2 0.00 0.13 0.13 80 1015.0
20260507191230 12 347 3.2 4.8 0.00 0.13 0.13 80 1015.0
20260507190533 12 334 1.6 4.8 0.00 0.13 0.13 80 1014.8
20260507190507 12 347 1.6 4.8 0.00 0.13 0.13 80 1014.8
20260507185712 12 334 3.2 4.8 0.00 0.13 0.13 80 1014.8
20260507184935 12 331 1.6 4.8 0.00 0.13 0.13 80 1014.8
20260507184436 12 331 3.2 4.8 0.00 0.13 0.13 80 1014.8
20260507183938 12 337 3.2 4.8 0.00 0.13 0.13 79 1014.9
20260507183434 12 336 3.2 4.8 0.00 0.13 0.13 79 1015.0
20260507182945 12 336 3.2 4.8 0.00 0.13 0.13 79 1015.0
20260507182432 12 326 3.2 4.8 0.00 0.13 0.13 79 1014.9
20260507181933 12 326 3.2 3.2 0.00 0.13 0.13 79 1015.0
20260507181433 12 326 3.2 4.8 0.00 0.13 0.13 79 1014.9
20260507180933 12 326 1.6 4.8 0.00 0.13 0.13 79 1014.8
20260507180434 12 326 1.6 4.8 0.00 0.13 0.13 79 1014.9
20260507175933 12 327 3.2 3.2 0.00 0.13 0.13 79 1015.0
20260507175716 13 327 3.2 3.2 0.00 0.13 0.13 79 1015.0
20260507174933 12 327 3.2 4.8 0.00 0.13 0.13 78 1014.9
20260507174437 13 327 3.2 4.8 0.00 0.13 0.13 78 1015.0
20260507173934 13 23 3.2 4.8 0.00 0.13 0.13 78 1015.1
20260507173443 13 23 1.6 3.2 0.00 0.13 0.13 79 1015.0
20260507172937 13 23 3.2 3.2 0.00 0.13 0.13 79 1014.9
20260507172433 13 23 3.2 3.2 0.00 0.13 0.13 78 1015.0
20260507171932 13 23 3.2 4.8 0.00 0.13 0.13 77 1015.0
20260507171436 13 273 1.6 4.8 0.00 0.13 0.13 77 1015.0
20260507170945 13 306 1.6 4.8 0.00 0.13 0.13 77 1014.9
20260507170737 13 22 1.6 4.8 0.00 0.13 0.13 76 1014.9
20260507170240 13 274 1.6 6.4 0.00 0.13 0.13 76 1014.8
20260507165952 13 274 1.6 6.4 0.00 0.13 0.13 76 1014.9
20260507164933 13 268 1.6 4.8 0.00 0.13 0.13 76 1014.7
20260507164433 14 267 1.6 4.8 0.00 0.13 0.13 76 1014.8
20260507163937 14 127 1.6 3.2 0.00 0.13 0.13 76 1014.8
20260507163432 14 127 1.6 6.4 0.00 0.13 0.13 76 1014.9
20260507162933 14 127 1.6 6.4 0.00 0.13 0.13 75 1014.8
20260507162436 14 137 1.6 6.4 0.00 0.13 0.13 76 1014.8
20260507161932 14 129 1.6 8.0 0.00 0.13 0.13 76 1014.8
20260507161433 14 182 1.6 8.0 0.00 0.13 0.13 75 1014.8
20260507160932 14 232 3.2 4.8 0.00 0.13 0.13 75 1014.9
20260507160433 14 178 3.2 6.4 0.00 0.13 0.13 75 1014.9
20260507155934 15 75 1.6 6.4 0.00 0.13 0.13 75 1014.9
20260507155747 15 172 3.2 11.3 0.00 0.13 0.13 74 1014.9
20260507155743 15 86 3.2 11.3 0.00 0.13 0.13 74 1014.9
20260507154711 15 144 3.2 11.3 0.00 0.13 0.13 75 1015.0
20260507153923 15 154 1.6 11.3 0.00 0.13 0.13 75 1015.1
20260507153456 14 162 4.8 12.9 0.00 0.13 0.13 73 1015.0
20260507153441 14 156 3.2 12.9 0.00 0.13 0.13 74 1015.0
20260507152412 14 119 3.2 12.9 0.00 0.13 0.13 76 1014.9
20260507151912 14 125 1.6 4.8 0.00 0.13 0.13 76 1015.0
20260507151413 14 141 1.6 9.7 0.00 0.13 0.13 76 1015.0
20260507150911 14 193 3.2 11.3 0.00 0.13 0.13 77 1015.0
20260507150451 14 184 3.2 11.3 0.00 0.13 0.13 76 1014.9
20260507150428 14 152 3.2 11.3 0.00 0.13 0.13 76 1014.9
20260507145412 15 213 3.2 11.3 0.00 0.13 0.13 76 1015.0
20260507144914 15 208 3.2 9.7 0.00 0.13 0.13 76 1015.0
20260507144413 15 119 3.2 6.4 0.00 0.13 0.13 77 1015.0
20260507143912 14 235 3.2 12.9 0.00 0.13 0.13 76 1015.1
20260507143647 14 168 4.8 12.9 0.00 0.13 0.13 76 1015.1
20260507142909 14 122 3.2 11.3 0.00 0.13 0.13 77 1015.1
20260507142406 14 97 4.8 12.9 0.00 0.13 0.13 77 1015.2
20260507141911 14 165 4.8 12.9 0.00 0.13 0.13 77 1015.3
20260507141404 14 93 3.2 6.4 0.00 0.13 0.13 77 1015.2
20260507141154 14 166 3.2 9.7 0.00 0.13 0.13 77 1015.2
20260507140654 14 166 3.2 16.1 0.00 0.13 0.13 77 1015.3
20260507135907 14 139 3.2 16.1 0.00 0.13 0.13 76 1015.3
20260507135404 14 160 3.2 11.3 0.00 0.13 0.13 77 1015.3
20260507134905 14 133 3.2 11.3 0.00 0.13 0.13 76 1015.4
20260507134657 14 241 4.8 12.9 0.00 0.13 0.13 76 1015.3
20260507133907 14 101 4.8 14.5 0.00 0.13 0.13 77 1015.3
20260507133452 14 104 3.2 11.3 0.00 0.13 0.13 77 1015.4
20260507133434 14 62 4.8 14.5 0.00 0.13 0.13 77 1015.3
20260507132650 14 70 3.2 11.3 0.00 0.13 0.13 77 1015.4
20260507131906 14 209 3.2 11.3 0.00 0.13 0.13 77 1015.3
20260507131645 14 276 3.2 11.3 0.00 0.13 0.13 77 1015.3
20260507130904 14 106 4.8 11.3 0.00 0.13 0.13 77 1015.3
20260507130406 14 143 3.2 11.3 0.00 0.13 0.13 77 1015.3
20260507125906 14 232 4.8 14.5 0.00 0.13 0.13 77 1015.4
20260507125718 14 197 4.8 12.9 0.00 0.13 0.13 76 1015.4
20260507125714 14 42 4.8 14.5 0.00 0.13 0.13 77 1015.4
20260507124407 14 207 4.8 19.3 0.00 0.13 0.13 76 1015.5
20260507123907 14 168 6.4 19.3 0.00 0.13 0.13 76 1015.4
20260507123409 14 148 4.8 17.7 0.00 0.13 0.13 76 1015.4
20260507122907 14 140 3.2 17.7 0.00 0.13 0.13 76 1015.4
20260507122647 14 110 3.2 11.3 0.00 0.13 0.13 76 1015.3
20260507121909 14 154 4.8 14.5 0.00 0.13 0.13 76 1015.3
20260507121652 14 170 6.4 17.7 0.00 0.13 0.13 75 1015.3
20260507120905 14 32 4.8 17.7 0.00 0.13 0.13 75 1015.3
20260507120646 14 120 4.8 12.9 0.00 0.13 0.13 75 1015.3
20260507115907 14 236 4.8 16.1 0.00 0.13 0.13 75 1015.4
20260507115405 14 149 6.4 16.1 0.00 0.13 0.13 75 1015.3
20260507114906 14 134 6.4 17.7 0.00 0.13 0.13 76 1015.4
20260507114406 14 99 4.8 17.7 0.00 0.13 0.13 75 1015.4
20260507113905 14 288 4.8 16.1 0.00 0.13 0.13 75 1015.4
20260507113653 15 176 6.4 19.3 0.00 0.13 0.13 75 1015.4
20260507112904 15 66 6.4 19.3 0.00 0.13 0.13 74 1015.5
20260507112405 15 168 4.8 16.1 0.00 0.13 0.13 74 1015.6
20260507111907 15 258 6.4 16.1 0.00 0.13 0.13 75 1015.5
20260507111406 14 200 6.4 17.7 0.00 0.13 0.13 74 1015.6
20260507110908 15 165 6.4 17.7 0.00 0.13 0.13 74 1015.5
20260507110412 15 225 6.4 17.7 0.00 0.13 0.13 74 1015.5
20260507105907 14 71 6.4 17.7 0.00 0.13 0.13 74 1015.6
20260507105405 14 185 6.4 17.7 0.00 0.13 0.13 75 1015.5
20260507104906 14 204 6.4 17.7 0.00 0.13 0.13 76 1015.4
20260507104406 14 135 6.4 17.7 0.00 0.13 0.13 76 1015.5
20260507103907 14 191 6.4 17.7 0.00 0.13 0.13 76 1015.6
20260507103408 14 159 8.0 20.9 0.00 0.13 0.13 76 1015.6
20260507102906 14 103 8.0 20.9 0.00 0.13 0.13 76 1015.6
20260507102406 14 147 8.0 24.1 0.00 0.13 0.13 76 1015.7
20260507102143 14 183 8.0 24.1 0.00 0.13 0.13 76 1015.6
20260507101406 14 102 8.0 19.3 0.00 0.13 0.13 76 1015.5
20260507100910 14 207 8.0 19.3 0.00 0.13 0.13 75 1015.6
20260507100708 14 136 8.0 17.7 0.00 0.13 0.13 75 1015.7
20260507095906 15 192 8.0 22.5 0.00 0.13 0.13 74 1015.6
20260507095403 15 185 6.4 22.5 0.00 0.13 0.13 73 1015.6
20260507094907 15 206 8.0 16.1 0.00 0.13 0.13 72 1015.6
20260507094416 14 191 8.0 20.9 0.00 0.13 0.13 72 1015.6
20260507094149 15 260 6.4 20.9 0.00 0.13 0.13 73 1015.6
20260507093406 15 131 6.4 17.7 0.00 0.13 0.13 73 1015.7
20260507093153 15 171 6.4 17.7 0.00 0.13 0.13 72 1015.6
20260507092405 15 158 6.4 16.1 0.00 0.13 0.13 72 1015.7
20260507091905 15 181 8.0 16.1 0.00 0.13 0.13 72 1015.7
20260507091418 15 97 8.0 22.5 0.00 0.13 0.13 74 1015.7
20260507090903 15 261 8.0 22.5 0.00 0.13 0.13 74 1015.7
20260507090411 15 152 8.0 17.7 0.00 0.13 0.13 75 1015.6
20260507085903 15 152 8.0 19.3 0.00 0.13 0.13 75 1015.5
20260507085404 15 80 6.4 19.3 0.00 0.13 0.13 74 1015.4
20260507085153 15 133 8.0 24.1 0.00 0.13 0.13 75 1015.5
20260507084404 15 221 8.0 24.1 0.00 0.13 0.13 74 1015.4
20260507083906 15 176 8.0 19.3 0.00 0.13 0.13 75 1015.4
20260507083406 15 244 8.0 16.1 0.00 0.13 0.13 76 1015.3
20260507082907 15 181 8.0 16.1 0.00 0.13 0.13 76 1015.2
20260507082710 15 118 6.4 17.7 0.00 0.13 0.13 76 1015.1
20260507081905 14 117 6.4 17.7 0.05 0.13 0.13 77 1015.2
20260507081404 14 179 6.4 19.3 0.08 0.13 0.13 78 1015.1
20260507081148 13 222 4.8 19.3 0.08 0.13 0.13 79 1015.2
20260507080401 13 181 3.2 12.9 0.08 0.13 0.13 78 1015.2
20260507075902 13 228 3.2 11.3 0.08 0.13 0.13 79 1015.1
20260507075401 13 184 4.8 11.3 0.08 0.13 0.13 79 1014.9
20260507074901 13 204 4.8 11.3 0.08 0.13 0.13 79 1014.9
20260507074402 13 243 3.2 9.7 0.08 0.13 0.13 79 1014.9
20260507073901 13 247 1.6 4.8 0.08 0.13 0.13 78 1014.8
20260507073401 13 94 0.0 3.2 0.08 0.13 0.13 77 1014.8
20260507072903 13 93 1.6 3.2 0.08 0.13 0.13 76 1014.8
20260507072401 13 93 1.6 6.4 0.08 0.13 0.10 76 1014.7
20260507071859 13 90 3.2 12.9 0.03 0.05 0.05 75 1014.8
20260507071358 13 116 4.8 12.9 0.00 0.05 0.05 74 1014.6
20260507071158 14 58 3.2 6.4 0.00 0.05 0.05 75 1014.7
20260507070354 13 235 3.2 8.0 0.00 0.05 0.05 76 1014.7
20260507070139 13 238 1.6 8.0 0.00 0.05 0.05 76 1014.7
20260507065357 13 82 1.6 6.4 0.00 0.05 0.05 77 1014.7
20260507064856 13 285 1.6 6.4 0.00 0.05 0.05 77 1014.6
20260507064354 13 268 1.6 4.8 0.00 0.05 0.05 77 1014.5
20260507063852 13 268 1.6 3.2 0.00 0.05 0.05 76 1014.5
20260507063351 13 268 1.6 4.8 0.00 0.05 0.05 75 1014.4
20260507062847 13 268 1.6 6.4 0.00 0.05 0.05 75 1014.4
20260507062341 13 102 1.6 6.4 0.00 0.05 0.05 75 1014.3
20260507061841 13 174 1.6 3.2 0.00 0.05 0.05 76 1014.4
20260507061629 13 174 1.6 4.8 0.00 0.10 0.05 76 1014.4
20260507060840 13 87 1.6 4.8 0.00 0.20 0.05 76 1014.4
20260507060339 13 210 1.6 3.2 0.00 0.20 0.05 76 1014.3
20260507055839 12 192 1.6 3.2 0.03 0.20 0.05 76 1014.3
20260507055339 12 245 0.0 3.2 0.05 0.20 0.05 77 1014.3
20260507054839 12 75 0.0 3.2 0.05 0.20 0.05 77 1014.3
20260507054339 12 75 1.6 4.8 0.05 0.20 0.05 77 1014.1
20260507054120 12 74 1.6 4.8 0.05 0.20 0.05 78 1014.1
20260507053339 12 66 1.6 4.8 0.05 0.20 0.05 78 1014.1
20260507052842 12 280 3.2 4.8 0.05 0.20 0.05 78 1013.9
20260507052336 12 4 1.6 4.8 0.05 0.20 0.05 78 1013.8
20260507052119 12 192 1.6 3.2 0.05 0.20 0.05 77 1013.8
20260507051332 12 192 1.6 3.2 0.05 0.20 0.05 78 1013.8
20260507051136 12 266 0.0 3.2 0.05 0.20 0.05 78 1013.7
20260507050332 12 266 1.6 4.8 0.05 0.20 0.05 77 1013.7
20260507045833 12 267 1.6 4.8 0.03 0.18 0.03 78 1013.7
20260507045334 12 156 0.0 3.2 0.00 0.15 0.00 78 1013.7
20260507044838 12 50 1.6 3.2 0.00 0.15 0.00 78 1013.5
20260507044335 12 50 1.6 4.8 0.00 0.15 0.00 78 1013.5
20260507043835 12 50 0.0 4.8 0.00 0.15 0.00 79 1013.5
20260507043339 12 298 1.6 4.8 0.00 0.18 0.00 79 1013.5
20260507042835 12 298 1.6 4.8 0.00 0.18 0.00 78 1013.4
20260507042335 12 60 0.0 3.2 0.00 0.28 0.00 79 1013.4
20260507041836 12 283 0.0 3.2 0.00 0.43 0.00 79 1013.3
20260507041335 12 283 0.0 3.2 0.00 0.43 0.00 79 1013.4
20260507040836 12 284 0.0 3.2 0.00 0.43 0.00 79 1013.4
20260507040340 12 284 1.6 4.8 0.00 0.43 0.00 79 1013.3
20260507035832 12 283 1.6 4.8 0.00 0.43 0.00 79 1013.3
20260507035333 12 283 1.6 4.8 0.00 0.43 0.00 79 1013.4
20260507034837 12 93 1.6 3.2 0.00 0.43 0.00 79 1013.4
20260507034334 12 93 1.6 6.4 0.00 0.43 0.00 79 1013.4
20260507033831 12 108 1.6 6.4 0.00 0.43 0.00 79 1013.3
20260507033333 12 291 1.6 3.2 0.00 0.43 0.00 79 1013.3
20260507033132 12 291 1.6 3.2 0.00 0.43 0.00 79 1013.4
20260507032332 12 290 1.6 3.2 0.00 0.43 0.00 79 1013.3
20260507031832 12 291 1.6 4.8 0.00 0.43 0.00 79 1013.3
20260507031333 12 279 1.6 4.8 0.00 0.46 0.00 79 1013.3
20260507030832 12 45 1.6 3.2 0.00 0.46 0.00 79 1013.2
20260507030334 12 45 1.6 4.8 0.00 0.46 0.00 79 1013.2
20260507025828 12 16 1.6 6.4 0.00 0.48 0.00 79 1013.2
20260507025329 12 81 1.6 6.4 0.00 0.51 0.00 79 1013.3
20260507025110 12 297 1.6 3.2 0.00 0.69 0.00 79 1013.2
20260507024325 12 297 1.6 6.4 0.00 1.14 0.00 79 1013.3
20260507023823 12 297 1.6 6.4 0.00 1.57 0.00 79 1013.3
20260507023326 12 297 1.6 4.8 0.00 1.80 0.00 79 1013.4
20260507022829 12 297 3.2 6.4 0.00 1.91 0.00 79 1013.4
20260507022605 12 297 3.2 6.4 0.00 1.96 0.00 79 1013.4
20260507021822 12 304 1.6 4.8 0.00 2.03 0.00 79 1013.3
20260507021321 12 304 1.6 4.8 0.00 2.08 0.00 79 1013.3
20260507020823 12 304 1.6 4.8 0.00 2.13 0.00 79 1013.3
20260507020323 12 304 1.6 3.2 0.00 2.21 0.00 79 1013.3
20260507015825 12 304 1.6 3.2 0.00 2.29 0.00 79 1013.4
20260507015324 12 304 1.6 3.2 0.00 2.44 0.00 80 1013.3
20260507014819 12 304 1.6 6.4 0.00 2.72 0.00 80 1013.3
20260507014318 12 304 3.2 6.4 0.00 2.74 0.00 80 1013.2
20260507014108 12 296 3.2 6.4 0.00 2.77 0.00 80 1013.2
20260507013318 12 293 3.2 4.8 0.00 2.77 0.00 80 1013.2
20260507012817 12 293 1.6 4.8 0.00 2.79 0.00 80 1013.2
20260507012318 12 293 0.0 3.2 0.00 2.82 0.00 80 1013.3
20260507011814 12 293 0.0 3.2 0.00 2.84 0.00 80 1013.3
20260507011315 12 293 1.6 3.2 0.00 2.84 0.00 80 1013.3
20260507010810 12 255 1.6 3.2 0.00 2.87 0.00 79 1013.3
20260507010308 12 255 1.6 4.8 0.00 2.87 0.00 80 1013.3
20260507005807 12 255 1.6 4.8 0.00 2.87 0.00 80 1013.4
20260507005306 12 255 1.6 4.8 0.00 2.87 0.00 80 1013.4
20260507005046 12 255 1.6 8.0 0.00 2.87 0.00 80 1013.4
20260507004305 12 250 1.6 8.0 0.00 2.87 0.00 80 1013.4
20260507003806 12 315 1.6 4.8 0.00 2.87 0.00 80 1013.4
20260507003347 12 295 1.6 3.2 0.00 2.87 0.00 80 1013.4
20260507003330 12 297 1.6 4.8 0.00 2.87 0.00 80 1013.3
20260507002305 12 295 1.6 3.2 0.00 2.87 0.00 80 1013.4
20260507001803 12 295 1.6 3.2 0.00 2.87 0.00 80 1013.3
20260507001302 12 295 1.6 4.8 0.00 2.87 0.00 80 1013.4
20260507000802 12 295 1.6 4.8 0.00 2.87 0.00 80 1013.4
20260507000302 12 300 1.6 4.8 0.00 2.87 0.00 80 1013.4
20260506235802 12 300 1.6 4.8 0.00 2.87 0.00 80 1013.4
20260506235306 12 301 1.6 4.8 0.00 2.87 0.00 80 1013.5
20260506234802 12 301 1.6 4.8 0.00 2.87 0.00 80 1013.5
20260506234303 12 237 1.6 6.4 0.00 2.87 0.00 80 1013.5
20260506234051 12 294 3.2 6.4 0.00 2.87 0.00 80 1013.6
20260506233308 12 295 3.2 4.8 0.00 2.87 0.00 80 1013.6
20260506232802 12 283 1.6 4.8 0.00 2.87 0.00 80 1013.7
20260506232306 12 315 1.6 4.8 0.00 2.87 0.00 80 1013.7
20260506232100 12 315 1.6 4.8 0.00 2.87 0.00 80 1013.6
20260506231253 12 260 3.2 9.7 0.00 2.87 0.00 80 1013.6
20260506230751 12 245 3.2 9.7 0.00 2.87 0.00 80 1013.6
20260506230249 12 236 3.2 9.7 0.00 2.87 0.00 80 1013.5
20260506225749 12 224 3.2 8.0 0.00 2.87 0.00 80 1013.5
20260506225249 12 183 1.6 6.4 0.00 2.87 0.00 80 1013.6
20260506224749 12 274 1.6 4.8 0.00 2.87 0.00 80 1013.6